Location: Newark
(47.3150°N, 5.1150°E)
Time: 02:22:51
(UTC+00:00)

AO-7 - Pass Details

Date: 20 December 2019
Orbit: 1440 x 1458 km, 101.8° (Epoch: 23 January)

Event Time Altitude Azimuth Distance (km) Brightness Sun altitude
Rises 05:08:24 0° 15° (NNE) 4,564 ? -21.7°
Reaches altitude 10° 05:11:24 10° 8° (N) 3,585 ? -21.2°
Maximum altitude 05:18:48 37° 306° (NW) 2,114 ? -19.9°
Enters shadow 05:23:10 23° 257° (WSW) 2,717 ? -19.2°
